Meteo Giornale » Osservazioni meteo Gran Bretagna » Topcliffe Royal

ore: 11:50 - Osservazioni Meteo Topcliffe Royal
Lat. 54° 12' N Lon. 1° 23' W Alt. 28 metri s.l.m.

nuvoloso Europe/London

18 °C

Nuvoloso

Temp. 24 Ore

14 °C

18 °C

Ovest

27.8 Km/h

Dew point 8 °C

Umidità 51 %

Visibilità  10 Km

Il sole sorge alle ore 04:28

Il sole tramonta alle ore 21:44

Data e Ora Cielo e Fenomeni T °C DP °C Um. % Pres. hPa Vis. km Vento km/h
Oggi h: 11:50 nuvoloso Nuvoloso 18 8 51 1015 10 O 27.8
Oggi h: 10:50 nuvoloso Nuvoloso 18 10 59 1014 10 O 22.2
Oggi h: 09:50 nuvoloso Nuvoloso 17 9 59 1014 10 O 16.7
Oggi h: 08:50 molto_nuvoloso Molto Nuvoloso 16 8 58 1014 10 O 16.7
Oggi h: 07:50 molto_nuvoloso Molto Nuvoloso 15 9 67 1013 10 O 22.2
Oggi h: 06:50 molto_nuvoloso Molto Nuvoloso 15 10 72 1013 10 S/SO 7.4
Oggi h: 05:50 molto_nuvoloso Molto Nuvoloso 14 11 82 1012 10 S/SO 9.3
Oggi h: 04:50 nuvoloso Nuvoloso 14 11 82 1012 10 O/SO 13
Oggi h: 03:50 molto_nuvoloso Molto Nuvoloso 15 11 76 1012 10 O 13
Oggi h: 02:50 molto_nuvoloso Molto Nuvoloso 15 11 76 1012 10 O/SO 13
Oggi h: 01:50 molto_nuvoloso Molto Nuvoloso 15 12 82 1012 10 S/SO 11.1
Ieri h: 23:50 coperto_pioggia Pioggia Debole 15 14 93 1012 10 S/SO 11.1
Ieri h: 22:50 molto_nuvoloso Molto Nuvoloso 15 14 93 1011 10 S/SE 13
Ieri h: 21:50 molto_nuvoloso Molto Nuvoloso 15 13 87 1011 10 SE 13
Ieri h: 20:50 molto_nuvoloso Molto Nuvoloso 15 13 87 1011 10 S/SE 14.8
Ieri h: 19:50 molto_nuvoloso Molto Nuvoloso 15 13 87 1011 10 S 20.3
Ieri h: 18:50 coperto Coperto 16 12 77 1011 10 S 22.2
Ieri h: 17:50 molto_nuvoloso Molto Nuvoloso 17 11 67 1011 10 S/SO 24
Ieri h: 16:50 coperto Coperto 17 10 63 1012 10 S/SO 14.8
Ieri h: 15:50 molto_nuvoloso Molto Nuvoloso 18 10 59 1012 10 S 18.5
Ieri h: 14:50 molto_nuvoloso Molto Nuvoloso 17 10 63 1012 10 S/SO 18.5
Ieri h: 13:50 molto_nuvoloso Molto Nuvoloso 16 9 63 1012 10 SO 20.3
Ieri h: 12:50 molto_nuvoloso Molto Nuvoloso 17 9 59 1012 10 O/SO 22.2